STARLINK-31868, 59783

Orbit data source: Space-Track

STARLINK-31868, 59783 is a payload satellite owned by SpaceX/Seattle (US) in LEO that was launched on Sat, 18 May 2024 UTC via an FALCON 9 launch vehicle from the Air Force Eastern Test Range (AFETR). Payload-class satellites include a variety of spacecraft equipped with specific instruments for various scientific and technological missions. These include communications satellites like Starlink; space stations such as the ISS; scientific satellites like the Hubble; Earth observation satellites from companies like Planet Labs, Umbra, and HawkEye 360; GPS; miniature CubeSats for education and research; and military/defense satellites.

Loading next visibility...
Identifier
59783, 2024-093B
Orbit
LEO
Country
Flag of USUS
Related business
Manufacturer
SpaceX/Seattle
Mission
Operational spacecraft
Bus & Motor
STARLINK V2M, Unknown motor
Mass
730 kg wet, ~700 kg dry
Launch date (UTC)
2024-05-18 (1 year ago)
Launch vehicle
FALCON 9
Launch site
Air Force Eastern Test Range (AFETR)
Object type
Payload
Rocket body
Debris
Shape & HBR
Unknown
Radar Cross Section
Large (>1 m²)

Expand to show TLE details & history
Last TLE update: 20 hours ago

TLE from 20 hours ago
0 STARLINK-31868
1 59783U 24093B   25258.00866297 -.00000975  00000-0 -25917-4 0  9991
2 59783  43.0048 117.8220 0001546 273.7043  86.3632 15.27581375 75864
Epoch: 2025-09-15T00:12Z
TLE epoch observation values (Epoch: 2025-09-15T00:12:28.48Z)
Latitude
-0.00002°
Longitude
120.48383°
Altitude
482.754 km
Speed
7.626 km/s
True Right ascension
07h 51m 17s
True Declination
0° 00' 00"
Sunlit
Object was in daylight at epoch
Visualization orbit readout
Latitude
Unknown
Longitude
Unknown
Altitude
Unknown
Speed
Unknown
Apparent Right ascension
Unknown
Apparent Declination
Unknown
Sunlit
N/A
Visualization observer readout
Local Sidereal Time
12:57:28
Azimuth
Unknown
Elevation
Unknown
Doppler factor
Unknown
Orbital elements
Apogee altitude
486.05 km
Perigee altitude
483.928 km
Semi-major axis
6,863.126 km
Eccentricity
0.00015
Inclination
43.0048°
RAAN
117.822°
Arg. of periapsis
273.7043°
True anomaly
86.38088°
Mean anomaly
86.3632°
Eccentric anomaly
86.37204°
Mean motion
3.81733 °/min
Orbital period
94.31 mins
BSTAR
-0.000025917
Loading maneuver chart data...
Computing Atmospheric mass density...
Loading historical data...
Loading historical data...
Loading historical data...
Loading historical data...
Loading historical data...
Loading historical data...
Loading historical data...

Documentation

Showing up to 5 results
|